This is the latest recevied weather packets stored in our database for station/object WB5HZM-3. If no packets are shown the sender has not sent any weather packets the latest 10 day(s).
| Time | Temp. | Humidity | Pressure | Rain* | Wind** | Luminosity | Snow |
|---|---|---|---|---|---|---|---|
| 1778118793 | 22.22° C | 85% | 1012.4 hPa | 0 mm | - | - | - |
| 1778118189 | 22.22° C | 85% | 1012.3 hPa | 0 mm | - | - | - |
| 1778117585 | 22.22° C | 84% | 1012.1 hPa | 0 mm | - | - | - |
| 1778116984 | 22.22° C | 84% | 1012 hPa | 0 mm | - | - | - |
| 1778116398 | 22.78° C | 84% | 1011.9 hPa | 0 mm | - | - | - |
| 1778115793 | 22.78° C | 84% | 1011.9 hPa | 0 mm | - | - | - |
| 1778115193 | 22.78° C | 84% | 1011.7 hPa | 0 mm | - | - | - |
| 1778114589 | 22.78° C | 84% | 1011.3 hPa | 0 mm | - | - | - |
| 1778113983 | 23.33° C | 84% | 1011 hPa | 0 mm | - | - | - |
| 1778113397 | 23.33° C | 84% | 1011 hPa | 0 mm | - | - | - |
| 1778112797 | 23.89° C | 84% | 1010.7 hPa | 0 mm | - | - | - |
| 1778112192 | 23.89° C | 84% | 1010.8 hPa | 0 mm | - | - | - |
| 1778111588 | 23.89° C | 84% | 1010.6 hPa | 0 mm | - | - | - |
| 1778110985 | 24.44° C | 84% | 1010.6 hPa | 0 mm | - | - | - |
| 1778110399 | 24.44° C | 84% | 1010.4 hPa | 0 mm | - | - | - |
| 1778109793 | 25.56° C | 82% | 1010.2 hPa | 0 mm | - | - | - |
| 1778109188 | 26.67° C | 82% | 1010.1 hPa | 0 mm | - | - | - |
| 1778108589 | 27.22° C | 83% | 1009.9 hPa | 0 mm | - | - | - |
| 1778108004 | 27.22° C | 84% | 1009.7 hPa | 0 mm | - | - | - |
| 1778107399 | 27.22° C | 84% | 1009.4 hPa | 0 mm | - | - | - |
| 1778106799 | 27.22° C | 84% | 1009.5 hPa | 0 mm | - | - | - |
| 1778106193 | 27.22° C | 84% | 1009.5 hPa | 0 mm | - | - | - |
| 1778105607 | 27.22° C | 84% | 1009.5 hPa | 0 mm | - | - | - |
| 1778105002 | 27.22° C | 84% | 1009.4 hPa | 0 mm | - | - | - |
| 1778104401 | 27.22° C | 84% | 1009.5 hPa | 0 mm | - | - | - |
* Rain latest hour (hover to see other rain measurements)
** Current wind speed in m/s (hover to see current wind gust speed)